[[{"header":{"parameterUnit":"m.s-1","parameterCategory":1,"la1":30.2991,"la2":30.254,"lo1":-89.0895,"lo2":-89.0444,"dy":0.0017,"dx":0.0017,"nx":28,"ny":28,"refTime":"2024-02-28T03:00:00:Z","depth":0,"parameterNumber":2,"parameterNumberName":"U-component_of_WINDS"},"data":[0,0,0,0,0,0,0,0,0,0,0,0,0,0,0,0,0,0,0,0,0,0,0,0,0,0,0,0,0,0,0,0,0,0,0,0,0,0,0,0,0,0,0,0,0,0,0,0,0,0,0,0,0,0,0,0,0,0,-5.9991,-5.9991,0,-6.0054,-6.0055,-6.0056,-5.9934,-5.993,-5.9926,-5.9922,-5.9986,-5.9991,-5.9996,0,0,0,0,0,0,0,0,0,0,0,0,0,-5.9762,-5.9767,-5.9991,-5.9991,-5.9992,-6.0054,-6.0055,-6.0056,-5.9934,-5.9929,-5.9924,-5.992,-5.9984,-5.999,-5.9997,0,0,0,0,0,0,0,0,0,0,0,0,0,-5.9847,-5.9769,-5.9991,-5.9939,-5.9935,-6.0054,-6.0055,-6.0056,-5.9935,-5.9929,-5.9923,-5.9918,-5.9982,-5.999,-5.9998,-6.0169,0,0,-6.0023,-6.0026,0,0,0,0,0,0,0,0,-5.9843,-5.9856,-5.9946,-5.9943,-5.9939,-5.998,-5.9998,-6.0094,-5.9937,-5.9935,-5.9922,-5.9915,-5.9988,-5.9996,-6.0021,-6.0172,-6.0175,-6.0023,-6.0028,-6.0032,-6.0034,0,0,0,0,0,0,0,-5.9837,-5.9852,-6.0016,-5.9947,-5.9943,-5.9912,-5.9918,-6.0015,-5.9995,-5.9935,-5.9926,-5.9935,-5.9985,-6.0013,-6.0021,-6.0175,-6.0023,-6.003,-6.0035,-6.0039,-6.047,-6.0476,0,0,0,0,0,0,-5.9838,-5.9848,-6.0014,-6.0017,-5.9875,-5.9921,-5.9927,-5.9973,-5.9993,-5.9991,-5.9941,-5.993,-6.0002,-6.0012,-6.0023,-6.0225,-6.0032,-6.0039,-6.0044,-6.0463,-6.0471,-6.0478,0,0,0,0,0,0,-5.9833,-5.9854,-6.0011,-5.9931,-5.9948,-5.9932,-5.9984,-5.9977,-6.0005,-5.9998,-5.9993,-5.9973,-5.9998,-6.0012,-6.0133,-6.0226,-6.0043,-6.005,-6.0455,-6.0466,-6.0475,-6.0631,0,0,0,0,0,0,-5.9827,-5.9853,-5.9918,-5.9933,-5.9953,-6.0122,-5.9989,-5.9983,-6.0019,-6.0006,-6.0027,-6.0025,-5.9994,-6.0122,-6.0142,-6.0233,-6.0057,-6.0447,-6.046,-6.0471,-6.0617,-6.0644,-6.0668,0,0,0,0,0,-5.982,-5.9959,-5.9922,-5.9943,-6.0035,-6.0127,-6.0138,-6.0101,-6.0027,-6.0093,-6.0088,-6.0024,-6.0212,-6.0136,-6.0157,-6.0252,-6.0441,-6.0456,-6.0471,-6.0606,-6.0639,-6.0667,0,0,0,0,0,0,-5.9956,-5.996,-5.9919,-6.0068,-6.0098,-6.0106,-6.0188,-6.0137,-6.0189,-6.0173,-6.0124,-6.013,-6.0262,-6.0268,-6.0183,-6.0419,-6.0314,-6.0334,-6.041,-6.0441,-6.0466,-6.0462,-6.0064,0,0,0,0,0,-6.0003,-6.0078,-6.0078,-6.0209,-6.0227,-6.0205,-6.0244,-6.0212,-6.0241,-6.0253,-6.0257,-6.0287,-6.0353,-6.0397,-6.0457,-6.0617,-6.062,-6.0693,-6.0719,-6.0739,-6.0757,-6.0842,-6.0875,-6.0527,-6.0526,-6.0526,0,0,-6.0102,-6.0113,-6.0164,-6.0237,-6.0257,-6.0335,-6.0216,-6.0305,-6.0362,-6.0266,-6.0382,-6.0386,-6.0416,-6.0558,-6.062,-6.0568,-6.0854,-6.0758,-6.0775,-6.0781,-6.0861,-6.0894,-6.0923,-6.0537,-6.0535,-6.0533,0,0,-6.0321,-6.0338,-6.0449,-6.0472,-6.0503,-6.0487,-6.0514,-6.053,-6.0529,-6.0645,-6.0574,-6.0641,-6.0755,-6.078,-6.0807,-6.1036,-6.0979,-6.1057,-6.119,-6.1273,-6.1301,-6.1325,-6.1407,-6.1437,-6.1074,-6.1075,-6.1075,0,-6.044,-6.0556,-6.0513,-6.0606,-6.064,-6.0557,-6.0669,-6.0692,-6.0742,-6.0767,-6.0707,-6.0849,-6.0863,-6.1009,-6.1065,-6.109,-6.1119,-6.1055,-6.13,-6.1324,-6.1346,-6.1423,-6.1454,-6.1084,-6.1083,-6.1082,-6.1081,0,-6.0701,-6.0782,-6.0868,-6.0919,-6.0962,-6.1064,-6.1036,-6.1085,-6.1049,-6.104,-6.1158,-6.1173,-6.1234,-6.1266,-6.1232,-6.1408,-6.1374,-6.1309,-6.1202,-6.1389,-6.1461,-6.149,-6.1097,-6.1094,-6.1091,-6.1089,0,0,-6.1009,-6.1034,-6.1066,-6.1088,-6.1116,-6.1178,-6.1276,-6.1336,-6.138,-6.1416,-6.1497,-6.1595,-6.1534,-6.1566,-6.1533,-6.1606,-6.1787,-6.1531,-6.1531,-6.1579,-6.1981,-6.2031,-6.2066,-6.1749,-6.1754,-6.1759,-6.1979,0,-6.1228,-6.1398,-6.1361,-6.1528,-6.1603,-6.1524,-6.1609,-6.1636,-6.1629,-6.1691,-6.1683,-6.1754,-6.1668,-6.1687,-6.1755,-6.175,-6.1867,-6.1734,-6.1823,-6.1827,-6.1819,-6.2104,-6.2157,-6.2365,-6.2007,-6.2011,-6.2015,0,-6.1506,-6.1554,-6.1728,-6.1744,-6.1774,-6.1851,-6.1904,-6.1964,-6.1991,-6.1981,-6.2017,-6.197,-6.2066,-6.1959,-6.2091,-6.2001,-6.2035,-6.2038,-6.2045,-6.2052,-6.1933,-6.212,-6.243,-6.2461,-6.2059,-6.2055,-6.2052,0,-6.1714,-6.1822,-6.194,-6.1961,-6.1982,-6.2038,-6.205,-6.2071,-6.211,-6.2155,-6.218,-6.2236,-6.2266,-6.231,-6.228,-6.2204,-6.2417,-6.2307,-6.2411,-6.2413,-6.2461,-6.2458,-6.2781,-6.2482,-6.2481,-6.2481,-6.248,0,-6.1963,-6.2073,-6.2034,-6.2107,-6.2227,-6.2184,-6.2304,-6.2306,-6.2326,-6.2397,-6.2332,-6.24,-6.2355,-6.2419,-6.2396,-6.2509,-6.2523,-6.2517,-6.251,-6.2524,-6.2525,-6.2546,-6.2531,-6.2489,-6.2487,-6.2486,-6.2484,0,-6.2217,-6.2195,-6.2319,-6.2329,-6.2334,-6.2422,-6.243,-6.2497,-6.2486,-6.2577,-6.2596,-6.2578,-6.265,-6.2623,-6.27,-6.2684,-6.2828,-6.2802,-6.282,-6.2813,-6.2919,-6.291,-6.3268,-6.3313,-6.2985,-6.2988,-6.299,0,-6.2377,-6.246,-6.2479,-6.2522,-6.2539,-6.2609,-6.2648,-6.2608,-6.2651,-6.2689,-6.2752,-6.2818,-6.2869,-6.2988,-6.2981,-6.304,-6.3014,-6.3136,-6.3023,-6.3034,-6.3017,-6.3012,-6.302,-6.3159,-6.3162,-6.3166,-6.3168,0,-6.2665,-6.265,-6.2709,-6.2765,-6.2814,-6.2855,-6.2891,-6.293,-6.2892,-6.2944,-6.3017,-6.3057,-6.3135,-6.3202,-6.3254,-6.3264,-6.3211,-6.3204,-6.3231,-6.3246,-6.3254,-6.3251,-6.2882,-6.3196,-6.3193,-6.3191,-6.3189,-6.3188,-6.2877,-6.2947,-6.2971,-6.3039,-6.3062,-6.3097,-6.3161,-6.3157,-6.3218,-6.3279,-6.3251,-6.3336,-6.336,-6.3425,-6.3443,-6.3508,-6.3461,-6.35,-6.351,-6.3521,-6.3535,-6.3243,-6.3517,-6.3516,-6.3515,-6.3515,-6.3514,0,-6.3161,-6.3173,-6.3236,-6.3289,-6.3342,-6.3286,-6.3323,-6.3371,-6.3447,-6.3475,-6.3526,-6.361,-6.3675,-6.3673,-6.3732,-6.3785,-6.3761,-6.3802,-6.3798,-6.3801,-6.3574,-6.3544,-6.382,-6.3819,-6.3819,-6.3819,-6.3819,-6.3819,-6.3316,-6.3431,-6.3419,-6.3545,-6.3555,-6.3638,-6.3664,-6.3696,-6.3718,-6.3815,-6.3868,-6.3866,-6.3882,-6.3942,-6.3998,-6.3995,-6.402,-6.4071,-6.4059,-6.3847,-6.3817,-6.3788,-6.376,-6.4076,-6.4077,-6.4281,-6.4283,-6.4284]},{"header":{"parameterUnit":"m.s-1","parameterCategory":1,"la1":30.2991,"la2":30.254,"lo1":-89.0895,"lo2":-89.0444,"dy":0.0017,"dx":0.0017,"nx":28,"ny":28,"refTime":"2024-02-28T03:00:00:Z","depth":0,"parameterNumber":3,"parameterNumberName":"V-component_of_WINDS"},"data":[0,0,0,0,0,0,0,0,0,0,0,0,0,0,0,0,0,0,0,0,0,0,0,0,0,0,0,0,0,0,0,0,0,0,0,0,0,0,0,0,0,0,0,0,0,0,0,0,0,0,0,0,0,0,0,0,0,0,-6.8377,-6.8378,0,-6.8446,-6.8447,-6.8448,-6.8363,-6.836,-6.8357,-6.8354,-6.842,-6.8424,-6.8429,0,0,0,0,0,0,0,0,0,0,0,0,0,-6.8167,-6.8171,-6.8377,-6.8378,-6.8379,-6.8446,-6.8447,-6.8448,-6.8364,-6.836,-6.8356,-6.8353,-6.8418,-6.8424,-6.8429,0,0,0,0,0,0,0,0,0,0,0,0,0,-6.8249,-6.8172,-6.8377,-6.8345,-6.8343,-6.8446,-6.8447,-6.8448,-6.8365,-6.836,-6.8355,-6.8351,-6.8417,-6.8423,-6.843,-6.8567,0,0,-6.8452,-6.8455,0,0,0,0,0,0,0,0,-6.8245,-6.8257,-6.8349,-6.8348,-6.8345,-6.8392,-6.8397,-6.8488,-6.8366,-6.8356,-6.8354,-6.8349,-6.8414,-6.8421,-6.8444,-6.857,-6.8573,-6.8452,-6.8456,-6.8459,-6.8461,0,0,0,0,0,0,0,-6.8239,-6.8253,-6.8404,-6.835,-6.8348,-6.8325,-6.8332,-6.8414,-6.841,-6.8357,-6.8351,-6.836,-6.8412,-6.8437,-6.8445,-6.8574,-6.8452,-6.8458,-6.8463,-6.8465,-6.8813,-6.8818,0,0,0,0,0,0,-6.8238,-6.8249,-6.8402,-6.8407,-6.8283,-6.8333,-6.834,-6.8381,-6.8409,-6.8409,-6.8364,-6.8356,-6.8428,-6.8437,-6.8447,-6.8608,-6.8459,-6.8466,-6.847,-6.8808,-6.8814,-6.882,0,0,0,0,0,0,-6.8234,-6.8252,-6.8399,-6.8326,-6.8343,-6.8342,-6.8388,-6.8385,-6.841,-6.8415,-6.8413,-6.8391,-6.8424,-6.8437,-6.8538,-6.8609,-6.8469,-6.8475,-6.8802,-6.881,-6.8817,-6.8932,0,0,0,0,0,0,-6.8228,-6.8251,-6.8304,-6.8328,-6.8348,-6.8491,-6.8393,-6.839,-6.8423,-6.8413,-6.844,-6.844,-6.8422,-6.8528,-6.8545,-6.8616,-6.8481,-6.8796,-6.8806,-6.8815,-6.8922,-6.8942,-6.896,0,0,0,0,0,-6.8221,-6.8333,-6.8308,-6.8327,-6.8415,-6.8496,-6.8506,-6.8485,-6.843,-6.8482,-6.8485,-6.8439,-6.8598,-6.8539,-6.8557,-6.8632,-6.8791,-6.8803,-6.8814,-6.8913,-6.8938,-6.896,0,0,0,0,0,0,-6.8316,-6.8336,-6.8308,-6.8431,-6.8463,-6.8481,-6.8547,-6.8512,-6.8559,-6.8547,-6.8517,-6.8524,-6.8631,-6.8641,-6.8574,-6.8764,-6.8685,-6.8701,-6.8754,-6.8778,-6.8797,-6.8793,-6.8487,0,0,0,0,0,-6.8352,-6.8418,-6.843,-6.8538,-6.8556,-6.8549,-6.8583,-6.8564,-6.8594,-6.8607,-6.8617,-6.8647,-6.8703,-6.8741,-6.8793,-6.8922,-6.8926,-6.8982,-6.9002,-6.9017,-6.9031,-6.9099,-6.9124,-6.8857,-6.8857,-6.8857,0,0,-6.8426,-6.8444,-6.8488,-6.8558,-6.858,-6.8647,-6.856,-6.8635,-6.8685,-6.8617,-6.8714,-6.8722,-6.8753,-6.8868,-6.8919,-6.888,-6.9106,-6.9032,-6.9045,-6.905,-6.9114,-6.9139,-6.9161,-6.8865,-6.8864,-6.8862,0,0,-6.8595,-6.8616,-6.8708,-6.8732,-6.8767,-6.8762,-6.8784,-6.8808,-6.8811,-6.8908,-6.8859,-6.8915,-6.9014,-6.9038,-6.9063,-6.9241,-6.92,-6.9259,-6.9359,-6.9426,-6.9447,-6.9465,-6.9529,-6.9552,-6.9272,-6.9273,-6.9273,0,-6.8682,-6.8783,-6.876,-6.8839,-6.887,-6.8814,-6.8906,-6.893,-6.898,-6.9002,-6.8957,-6.908,-6.9096,-6.9216,-6.926,-6.9282,-6.9305,-6.9256,-6.9446,-6.9465,-6.9481,-6.9541,-6.9565,-6.928,-6.9279,-6.9278,-6.9278,0,-6.8888,-6.8959,-6.9029,-6.9081,-6.912,-6.9205,-6.9192,-6.9235,-6.9212,-6.9211,-6.9308,-6.9327,-6.9382,-6.9408,-6.9386,-6.9525,-6.95,-6.9451,-6.9371,-6.9514,-6.957,-6.9592,-6.929,-6.9287,-6.9285,-6.9283,0,0,-6.912,-6.9157,-6.9183,-6.9206,-6.924,-6.9293,-6.9375,-6.943,-6.9467,-6.9502,-6.9569,-6.9654,-6.9609,-6.9638,-6.9617,-6.9676,-6.9815,-6.962,-6.962,-6.9655,-6.9968,-7.0005,-7.0032,-6.9788,-6.9792,-6.9796,-6.9965,0,-6.929,-6.9434,-6.9414,-6.9551,-6.9616,-6.9563,-6.9634,-6.9661,-6.9662,-6.9715,-6.9715,-6.9776,-6.9712,-6.9729,-6.9785,-6.9787,-6.9877,-6.9774,-6.9849,-6.9852,-6.9843,-7.0061,-7.01,-7.0259,-6.9987,-6.9991,-6.9993,0,-6.9507,-6.9553,-6.9697,-6.9721,-6.9747,-6.9811,-6.986,-6.9912,-6.9941,-6.9938,-6.997,-6.9939,-7.0018,-6.9937,-7.0046,-6.9976,-7.0005,-7.001,-7.0016,-7.0022,-6.9932,-7.0073,-7.0309,-7.0334,-7.0027,-7.0025,-7.0022,0,-6.9662,-6.9759,-6.9857,-6.9878,-6.9908,-6.9955,-6.9969,-6.9994,-7.0028,-7.007,-7.0091,-7.0142,-7.0169,-7.0207,-7.019,-7.0132,-7.0302,-7.0219,-7.03,-7.03,-7.0338,-7.0336,-7.0583,-7.0357,-7.0357,-7.0356,-7.0356,0,-6.9853,-6.9944,-6.9927,-6.9988,-7.0087,-7.0063,-7.0161,-7.0168,-7.0191,-7.0251,-7.0207,-7.0264,-7.0237,-7.0291,-7.0278,-7.037,-7.0382,-7.038,-7.0376,-7.0385,-7.0385,-7.0403,-7.0392,-7.0362,-7.0361,-7.036,-7.0359,0,-7.0043,-7.0036,-7.014,-7.016,-7.0167,-7.024,-7.0256,-7.0312,-7.0309,-7.0385,-7.0401,-7.0397,-7.0458,-7.0445,-7.0512,-7.0502,-7.0618,-7.0599,-7.0609,-7.0604,-7.0686,-7.0678,-7.0953,-7.0988,-7.074,-7.0742,-7.0744,0,-7.0166,-7.0234,-7.0262,-7.03,-7.0319,-7.038,-7.0415,-7.0393,-7.0431,-7.047,-7.0521,-7.0579,-7.0624,-7.0724,-7.0726,-7.0777,-7.0759,-7.0852,-7.0766,-7.0773,-7.076,-7.0756,-7.0763,-7.0869,-7.0871,-7.0874,-7.0876,0,-7.0385,-7.0378,-7.0431,-7.0484,-7.0528,-7.0567,-7.0602,-7.0635,-7.0616,-7.066,-7.0724,-7.0759,-7.0828,-7.0886,-7.0933,-7.0945,-7.0907,-7.0903,-7.0924,-7.0934,-7.0937,-7.0936,-7.0655,-7.0896,-7.0894,-7.0893,-7.0892,-7.0891,-7.0545,-7.0603,-7.0632,-7.0693,-7.0717,-7.0751,-7.0805,-7.0809,-7.0862,-7.0918,-7.0901,-7.0973,-7.0999,-7.1058,-7.1076,-7.1131,-7.1096,-7.1127,-7.1134,-7.1143,-7.1153,-7.0928,-7.1139,-7.1138,-7.1138,-7.1137,-7.1137,0,-7.0761,-7.0777,-7.0834,-7.0885,-7.0932,-7.0894,-7.0931,-7.0972,-7.1037,-7.1065,-7.1111,-7.1183,-7.1239,-7.1245,-7.1297,-7.1339,-7.1323,-7.1354,-7.135,-7.1354,-7.1181,-7.1158,-7.1366,-7.1366,-7.1366,-7.1366,-7.1366,-7.1366,-7.088,-7.0976,-7.0973,-7.108,-7.1095,-7.1167,-7.1191,-7.1221,-7.1243,-7.1327,-7.1374,-7.1377,-7.1396,-7.1449,-7.1498,-7.1498,-7.1519,-7.1556,-7.155,-7.1388,-7.1366,-7.1344,-7.1322,-7.1561,-7.1561,-7.1717,-7.1719,-7.172]}]]